Date,TemperatureHighF,TemperatureAvgF,TemperatureLowF,DewpointHighF,DewpointAvgF,DewpointLowF,HumidityHigh,HumidityAvg,HumidityLow,PressureMaxIn,PressureMinIn,WindSpeedMaxMPH,WindSpeedAvgMPH,GustSpeedMaxMPH,PrecipitationSumIn
2012-1-1,38.1,34.8,29.6,36.0,32.6,27.0,96,91,86,29.92,29.34,22,9,32,0.44
2012-1-2,29.2,18.8,6.7,28.0,13.0,2.0,93,78,71,30.22,29.58,34,20,40,0.00
2012-1-3,21.8,8.2,0.6,15.0,3.4,-5.0,87,80,73,30.40,30.06,24,9,35,0.00
2012-1-4,30.7,27.4,22.0,26.0,22.2,15.0,86,81,74,30.05,29.79,24,9,31,0.00
2012-1-5,34.9,28.5,24.8,31.0,22.1,16.0,87,77,64,29.95,29.53,9,4,17,0.00
2012-1-6,44.2,35.3,24.6,37.0,30.7,23.0,96,84,70,29.65,29.50,16,4,25,0.00
2012-1-7,37.1,29.1,21.0,32.0,23.9,14.0,87,81,73,30.21,29.62,22,10,27,0.00
2012-1-8,33.2,24.6,12.8,30.0,20.5,10.0,91,84,75,30.33,30.20,11,4,17,0.00
2012-1-9,38.3,34.5,26.1,33.0,29.8,23.0,91,83,77,30.20,29.71,19,8,31,0.00
2012-1-10,37.3,34.1,31.3,33.0,28.9,24.0,89,81,74,30.00,29.80,20,7,31,0.00
2012-1-11,41.3,36.5,29.3,37.0,34.0,28.0,96,90,82,29.81,29.64,13,4,20,0.00
2012-1-12,36.3,30.7,23.4,35.0,28.5,22.0,94,91,85,29.64,29.39,20,10,26,0.00
2012-1-13,22.9,13.0,6.2,21.0,8.3,-2.0,93,82,64,30.04,29.39,24,15,29,0.00
2012-1-14,11.2,4.4,-2.5,3.0,-1.2,-6.0,86,78,60,30.36,30.05,13,5,17,0.00
2012-1-15,25.8,17.4,1.0,21.0,12.3,-3.0,89,80,68,30.46,30.27,12,4,21,0.00
2012-1-16,31.0,28.6,25.6,29.0,24.5,20.0,95,85,74,30.27,29.79,12,4,21,0.00
2012-1-17,30.8,23.6,12.1,29.0,20.7,7.0,95,88,81,29.99,29.68,26,12,30,0.00
2012-1-18,22.8,14.9,1.9,17.0,9.9,-1.0,89,80,72,30.24,29.89,27,7,30,0.00
2012-1-19,24.0,15.8,5.4,21.0,9.9,1.0,91,77,64,30.10,29.58,27,13,37,0.01
2012-1-20,15.3,10.5,1.6,11.0,6.3,-3.0,89,83,76,30.27,30.11,6,2,10,0.00
2012-1-21,20.3,10.0,-2.6,15.0,5.2,-7.0,89,81,65,30.36,30.19,8,3,10,0.00
2012-1-22,34.1,27.4,6.5,32.0,23.7,4.0,94,86,74,30.32,29.87,19,8,30,0.03
2012-1-23,42.3,37.3,33.4,42.0,36.2,31.0,97,95,91,29.87,29.31,23,10,30,1.02
2012-1-24,33.4,26.1,23.2,31.0,20.4,16.0,92,79,67,30.31,29.53,22,10,26,0.00
2012-1-25,29.3,25.2,18.8,26.0,21.6,15.0,89,86,82,30.41,30.21,14,3,17,0.00
2012-1-26,34.2,32.4,29.2,33.0,29.2,26.0,94,87,83,30.20,29.65,12,4,20,0.00
2012-1-27,35.2,32.7,29.7,33.0,28.8,24.0,97,86,66,29.86,29.57,24,6,27,0.05
2012-1-28,34.7,29.9,24.3,31.0,24.9,16.0,95,81,66,29.82,29.58,20,8,26,0.01
2012-1-29,25.8,22.8,19.7,19.0,15.8,13.0,87,74,62,30.13,29.82,19,9,25,0.00
2012-1-30,29.0,22.3,8.9,27.0,17.6,6.0,94,82,69,30.19,29.94,15,4,19,0.00
2012-1-31,39.3,31.6,26.1,37.0,30.1,24.0,97,94,89,29.93,29.66,10,3,16,0.12
2012-2-1,38.1,32.5,27.8,36.0,28.1,23.0,94,84,73,30.20,29.67,26,10,35,0.00
2012-2-2,32.5,27.7,25.1,31.0,24.3,21.0,93,86,79,30.40,30.20,10,3,10,0.00
2012-2-3,36.8,33.5,30.1,31.0,29.0,25.0,94,83,71,30.48,30.40,14,6,18,0.00
2012-2-4,34.3,31.0,28.0,29.0,27.0,25.0,89,85,80,30.45,30.20,12,3,15,0.00
2012-2-5,33.1,31.3,29.5,30.0,27.0,25.0,93,84,75,30.27,30.04,13,6,25,0.00
2012-2-6,37.1,34.6,31.8,31.0,29.3,26.0,90,81,71,30.13,29.93,20,8,22,0.00
2012-2-7,31.4,19.7,14.2,25.0,11.5,2.0,84,71,44,30.47,30.14,22,9,26,0.00
2012-2-8,32.6,26.1,15.4,23.0,18.3,9.0,84,72,58,30.41,30.06,15,8,25,0.00
2012-2-9,37.7,32.1,28.1,24.0,19.5,14.0,72,61,42,30.06,29.89,20,8,26,0.00
2012-2-10,32.0,15.3,5.0,24.0,6.9,-4.0,87,70,51,30.22,29.87,19,11,24,0.00
2012-2-11,21.7,9.8,-0.7,17.0,3.3,-7.0,83,75,67,30.30,30.03,21,10,28,0.00
2012-2-12,30.7,23.1,15.3,20.0,14.5,5.0,84,70,62,30.08,29.95,30,12,33,0.00
2012-2-13,33.0,29.5,25.4,24.0,18.1,10.0,72,63,39,29.95,29.86,24,10,30,0.00
2012-2-14,33.0,31.4,29.7,30.0,28.4,23.0,93,88,67,29.95,29.82,10,4,18,0.04
2012-2-15,35.8,33.3,30.6,33.0,30.7,29.0,94,90,83,30.12,29.96,7,2,14,0.02
2012-2-16,35.3,33.0,30.7,32.0,31.0,28.0,96,92,87,30.09,29.86,13,4,26,0.02
2012-2-17,34.4,31.1,28.7,28.0,25.9,23.0,89,81,70,30.05,29.93,17,7,24,0.00
2012-2-18,29.0,25.1,20.0,25.0,18.9,14.0,90,78,65,30.29,29.98,23,11,24,0.00
2012-2-19,28.7,23.8,15.9,21.0,17.5,13.0,89,77,63,30.28,30.21,13,3,17,0.00
2012-2-20,39.5,27.3,12.9,29.0,22.1,11.0,95,81,60,30.36,30.16,10,4,19,0.00
2012-2-21,37.8,33.7,30.6,32.0,29.4,26.0,95,84,76,30.14,29.46,18,7,25,0.03
2012-2-22,35.2,32.9,29.3,32.0,29.4,27.0,92,87,76,29.46,29.36,14,5,26,0.06
2012-2-23,35.3,30.9,26.0,30.0,27.3,24.0,93,86,74,29.73,29.40,10,4,12,0.02
2012-2-24,30.8,29.1,25.5,30.0,27.0,23.0,96,91,84,29.70,29.48,18,8,20,0.00
2012-2-25,25.6,20.1,15.4,23.0,11.2,6.0,89,69,51,30.32,29.66,23,12,26,0.00
2012-2-26,33.6,21.8,11.6,27.0,16.5,6.0,90,80,59,30.44,30.07,20,8,28,0.00
2012-2-27,34.6,29.7,20.6,30.0,24.5,14.0,89,81,74,30.46,29.87,27,12,34,0.01
2012-2-28,29.0,21.7,9.0,25.0,18.0,6.0,93,85,76,30.56,30.32,11,3,13,0.00
2012-2-29,27.9,25.4,22.5,26.0,22.8,18.0,94,90,82,30.31,29.64,34,15,39,0.00
2012-3-1,30.8,27.9,25.7,27.0,24.9,23.0,94,88,80,29.91,29.63,23,7,31,0.00
2012-3-2,35.4,32.2,28.5,33.0,30.8,26.0,97,94,88,29.90,29.30,16,5,21,0.01
2012-3-4,14.1,9.7,6.9,9.0,-3.0,-99.9,88,77,81,30.10,29.98,7,-42,9,0.00
2012-3-5,20.7,8.7,-2.8,18.0,4.4,-7.0,91,82,66,30.41,30.08,5,2,8,0.02
2012-3-6,38.7,31.4,20.9,35.0,28.0,18.0,94,87,79,30.39,29.90,19,7,30,0.28
2012-3-7,56.3,49.6,39.9,46.0,39.2,36.0,87,68,49,29.90,29.58,18,7,24,0.03
2012-3-8,49.6,31.1,22.7,46.0,26.8,19.0,94,84,72,30.07,29.58,25,10,36,0.26
2012-3-9,27.2,21.8,14.6,26.0,14.5,6.0,94,74,58,30.57,30.02,33,11,37,0.00
2012-3-10,39.8,26.1,3.9,30.0,19.1,0.0,88,75,62,30.59,30.06,20,6,33,0.00
2012-3-11,57.5,45.7,34.3,34.0,32.3,29.0,85,61,41,30.17,30.06,16,6,27,0.00
2012-3-12,47.5,38.4,29.3,46.0,35.6,27.0,97,90,67,30.16,29.69,15,4,20,0.18
2012-3-13,46.2,42.7,38.6,45.0,37.8,31.0,95,83,67,30.05,29.69,18,9,26,0.18
2012-3-14,50.3,41.3,27.6,35.0,30.4,26.0,92,67,43,30.14,29.99,18,6,26,0.00
2012-3-15,45.6,38.1,31.8,38.0,33.8,30.0,95,84,69,30.07,29.94,11,3,15,0.00
2012-3-16,54.6,38.5,29.4,46.0,35.6,28.0,96,89,72,30.18,30.06,9,2,14,0.00
2012-3-17,56.2,45.2,35.0,50.0,41.8,33.0,97,88,75,30.16,30.00,12,5,18,0.00
2012-3-18,67.2,54.0,35.0,56.0,48.3,33.0,97,82,64,30.09,29.98,11,5,18,0.00
2012-3-19,60.7,46.5,36.1,54.0,44.2,35.0,97,92,77,30.11,30.02,13,5,23,0.00
2012-3-20,59.5,51.9,40.6,54.0,48.4,39.0,97,88,73,30.14,30.03,21,5,21,0.14
2012-3-21,75.9,61.0,42.2,58.0,52.8,40.0,97,76,53,30.14,30.04,10,4,17,0.34
2012-3-22,51.7,45.3,38.6,50.0,44.1,37.0,97,95,86,30.25,30.07,9,2,12,0.03
2012-3-23,49.7,45.8,40.9,46.0,42.1,35.0,98,87,69,30.23,30.06,17,7,21,0.06
2012-3-24,44.2,41.6,37.9,41.0,34.5,33.0,94,76,64,30.07,29.93,17,8,24,0.04
2012-3-25,45.9,39.2,30.4,43.0,34.6,21.0,96,84,68,30.25,29.90,30,11,33,0.04
2012-3-26,38.0,28.9,23.1,21.0,15.1,6.0,78,59,27,30.54,30.25,22,9,27,0.00
2012-3-27,40.5,32.0,24.3,34.0,24.7,17.0,85,75,63,30.46,29.63,24,7,33,0.06
2012-3-28,48.6,41.1,34.8,40.0,35.6,28.0,90,81,66,30.02,29.52,19,11,26,0.06
2012-3-29,40.7,33.7,26.5,29.0,24.8,22.0,88,70,50,30.27,30.04,17,7,20,0.00
2012-3-30,32.6,29.5,26.3,27.0,24.4,21.0,92,81,67,30.21,30.07,18,8,23,0.00
2012-3-31,37.6,33.0,28.0,31.0,26.2,20.0,92,77,50,30.13,29.89,11,3,15,0.00
2012-4-1,40.9,37.0,31.0,37.0,34.8,29.0,95,92,85,29.96,29.77,8,3,11,0.01
2012-4-2,49.3,35.6,25.3,33.0,25.9,13.0,95,72,24,30.18,29.97,6,2,11,0.00
2012-4-3,48.2,37.6,27.4,37.0,29.9,23.0,89,75,52,30.08,29.91,17,4,22,0.00
2012-4-4,48.4,40.2,34.5,35.0,30.8,26.0,89,71,45,30.08,29.92,19,11,22,0.00
2012-4-5,46.1,36.5,31.1,27.0,23.1,19.0,71,60,40,30.24,30.08,15,8,20,0.00
2012-4-6,51.6,37.8,27.3,27.0,25.0,15.0,88,63,32,30.39,30.25,14,4,16,0.00
2012-4-7,51.8,37.9,27.0,35.0,25.9,17.0,86,64,25,30.35,30.13,6,3,12,0.00
2012-4-8,45.8,40.5,36.4,40.0,31.6,25.0,92,71,50,30.13,29.95,24,9,32,0.08
2012-4-9,50.6,41.0,33.8,31.0,27.0,21.0,82,61,33,29.94,29.77,23,12,30,0.00
2012-4-10,38.9,36.2,34.3,33.0,31.3,30.0,90,83,72,30.02,29.78,27,13,32,0.00
2012-4-11,48.3,38.7,33.1,32.0,30.5,27.0,87,74,44,30.25,30.03,16,7,17,0.00
2012-4-12,46.3,35.8,27.5,36.0,30.9,26.0,94,83,65,30.30,30.23,11,4,14,0.00
2012-4-13,51.9,38.6,25.8,35.0,29.2,24.0,93,72,37,30.32,30.13,13,4,15,0.00
2012-4-14,60.6,49.1,40.5,48.0,39.8,31.0,89,71,56,30.13,29.74,10,5,16,0.00
2012-4-15,58.7,47.7,36.3,55.0,45.6,35.0,97,92,81,29.80,29.62,12,4,17,0.04
2012-4-16,65.8,51.0,28.9,59.0,46.6,20.0,97,86,57,30.00,29.42,23,9,33,0.28
2012-4-17,39.8,30.9,24.5,27.0,21.8,17.0,85,70,57,30.42,30.01,29,9,31,0.28
2012-4-18,48.5,37.1,27.0,43.0,32.5,25.0,94,84,66,30.40,29.89,29,8,31,0.13
2012-4-19,49.2,42.6,37.6,42.0,36.1,33.0,89,78,62,30.07,29.92,15,6,21,0.12
2012-4-20,40.4,36.8,30.6,38.0,33.9,29.0,96,89,76,30.04,29.92,17,9,23,0.12
2012-4-21,47.9,38.4,30.7,30.0,26.8,22.0,84,65,38,30.13,30.03,13,6,15,0.12
2012-4-22,53.5,40.3,27.0,32.0,26.0,16.0,93,61,23,30.22,30.09,7,3,13,0.00
2012-4-23,48.2,41.8,36.1,33.0,28.2,22.0,81,60,43,30.10,29.59,21,12,25,0.00
2012-4-24,48.7,43.9,41.1,33.0,28.9,25.0,69,56,39,29.66,29.46,26,15,34,0.00
2012-4-25,54.4,44.0,30.7,35.0,28.9,22.0,88,58,31,29.81,29.66,14,5,17,0.00
2012-4-26,43.6,39.8,36.3,40.0,33.7,24.0,94,79,60,30.10,29.71,24,10,33,0.02
2012-4-27,43.6,37.3,31.7,29.0,22.3,15.0,85,56,35,30.32,30.10,20,10,23,0.02
2012-4-28,45.9,36.9,26.4,28.0,22.1,13.0,89,57,32,30.39,30.26,12,6,16,0.00
2012-4-29,56.6,43.2,28.9,33.0,22.6,14.0,91,50,20,30.41,30.27,12,3,18,0.00
2012-4-30,44.6,42.8,40.7,37.0,29.7,17.0,80,62,34,30.27,29.96,21,7,21,0.02
2012-5-1,61.1,46.6,40.1,44.0,40.0,37.0,91,79,52,30.07,29.95,14,4,17,0.00
2012-5-2,50.1,45.2,41.2,48.0,43.2,39.0,97,93,80,30.00,29.84,16,5,26,0.22
2012-5-3,56.3,47.4,43.0,54.0,46.3,42.0,98,96,79,30.04,29.78,12,3,19,0.14
2012-5-4,63.1,51.4,44.6,50.0,45.1,39.0,98,81,51,30.16,29.89,11,4,15,0.14
2012-5-5,57.8,46.7,38.6,39.0,27.5,8.0,80,52,14,30.27,30.16,15,6,24,0.00
2012-5-6,61.5,47.1,32.6,41.0,32.0,25.0,87,60,27,30.23,30.10,11,3,14,0.00
2012-5-7,58.7,48.3,41.5,43.0,38.7,35.0,85,71,42,30.12,29.83,12,2,19,0.00
2012-5-8,63.4,49.6,39.0,47.0,42.6,36.0,92,78,46,29.83,29.75,10,3,19,0.01
2012-5-9,52.9,47.7,43.3,45.0,40.1,31.0,92,76,52,29.86,29.75,15,6,18,0.01
2012-5-10,61.9,50.8,38.8,37.0,34.1,31.0,83,56,33,29.95,29.85,17,8,22,0.00
2012-5-11,70.5,54.6,39.0,44.0,38.0,32.0,82,56,31,30.07,29.95,12,4,16,0.00
2012-5-12,64.1,55.9,47.0,48.0,39.6,26.0,80,57,33,30.20,30.03,20,9,27,0.00
2012-5-13,70.5,56.5,45.9,37.0,30.5,25.0,55,39,18,30.25,30.07,11,5,16,0.00
2012-5-14,72.0,59.4,49.6,40.0,35.5,30.0,70,42,28,30.07,29.91,14,5,18,0.00
2012-5-15,70.1,56.3,43.9,47.0,41.8,38.0,89,61,36,29.91,29.66,28,7,38,0.00
2012-5-16,52.0,46.9,41.6,40.0,36.0,32.0,84,67,47,30.14,29.85,26,13,29,0.00
2012-5-17,60.8,47.5,32.6,41.0,33.3,28.0,91,61,29,30.25,30.12,10,4,16,0.00
2012-5-18,63.4,52.7,47.6,46.0,39.9,30.0,84,63,45,30.14,30.00,21,6,24,0.00
2012-5-19,74.2,59.4,41.1,50.0,44.0,38.0,90,60,35,30.10,30.00,14,5,26,0.00
2012-5-20,77.8,70.1,63.7,53.0,49.4,46.0,59,48,41,30.05,29.86,19,7,24,0.00
2012-5-21,73.5,58.5,50.1,56.0,50.3,46.0,87,76,43,30.08,29.86,21,8,24,0.00
2012-5-22,70.0,54.8,44.4,48.0,42.9,36.0,94,69,33,30.10,29.92,8,3,14,0.00
2012-5-23,69.5,56.0,42.9,53.0,46.6,40.0,90,72,42,29.96,29.82,13,4,18,0.00
2012-5-24,71.3,63.1,51.4,59.0,54.2,48.0,93,74,63,29.86,29.66,21,9,31,0.00
2012-5-25,69.8,64.0,55.0,60.0,52.6,45.0,83,68,47,30.07,29.59,21,10,30,0.02
2012-5-26,68.9,56.0,47.3,52.0,46.7,42.0,87,72,43,30.26,30.10,9,3,13,0.00
2012-5-27,64.1,57.3,54.1,55.0,49.8,47.0,90,76,61,30.18,29.88,17,3,19,0.00
2012-5-28,82.2,66.3,52.7,67.0,58.7,50.0,93,78,56,29.89,29.57,14,5,25,0.41
2012-5-29,68.7,61.0,50.6,62.0,54.4,47.0,97,81,48,29.71,29.55,26,7,30,0.45
2012-5-30,53.7,49.7,46.0,48.0,43.9,41.0,95,81,68,29.96,29.71,18,9,23,0.00
2012-5-31,59.0,49.9,42.3,44.0,40.9,37.0,93,73,45,30.09,29.96,11,4,15,0.00
2012-6-1,52.8,49.1,43.7,48.0,45.4,38.0,96,87,72,30.02,29.47,25,8,27,0.91
2012-6-2,50.5,49.2,47.6,49.0,48.1,46.0,96,95,94,29.52,29.30,18,8,29,0.21
2012-6-3,61.7,54.8,49.5,52.0,49.8,48.0,96,84,68,29.80,29.52,17,9,22,0.26
2012-6-4,65.0,56.1,49.8,56.0,52.1,48.0,95,87,68,30.02,29.80,12,3,17,0.01
2012-6-5,72.2,58.0,43.8,55.0,49.7,43.0,97,76,49,30.10,29.99,7,3,12,0.02
2012-6-6,74.9,62.9,52.4,56.0,52.7,48.0,95,71,42,30.03,29.96,14,4,21,0.03
2012-6-7,76.0,66.0,53.1,56.0,51.7,48.0,91,62,43,30.02,29.94,16,6,23,0.00
2012-6-8,77.6,64.7,56.2,60.0,54.9,49.0,91,72,47,29.94,29.75,10,5,19,0.01
2012-6-9,74.7,65.8,59.4,65.0,61.4,58.0,96,86,70,29.82,29.75,8,3,11,0.08
2012-6-10,84.2,69.5,57.0,62.0,58.0,54.0,93,69,46,29.93,29.82,13,5,17,0.00
2012-6-11,78.7,72.2,63.5,65.0,59.7,55.0,88,66,54,29.88,29.68,17,6,26,0.00
2012-6-12,68.8,58.1,49.4,64.0,50.1,40.0,91,75,61,30.14,29.63,32,13,36,0.00
2012-6-13,66.2,54.8,39.2,50.0,42.6,37.0,93,66,41,30.25,30.13,17,4,23,0.00
2012-6-14,65.8,58.6,42.5,50.0,44.9,40.0,91,62,45,30.27,30.11,17,6,21,0.00
2012-6-15,67.0,61.7,58.0,57.0,52.9,48.0,81,73,60,30.18,30.08,17,7,20,0.00
2012-6-16,76.9,67.1,58.3,63.0,57.9,54.0,85,73,59,30.14,29.85,19,6,28,0.00
2012-6-17,74.0,66.6,59.9,64.0,58.5,52.0,95,77,48,29.84,29.72,13,5,24,0.10
2012-6-18,70.6,62.0,57.2,65.0,58.0,54.0,95,87,70,29.78,29.63,25,7,25,0.51
2012-6-19,73.5,66.5,58.8,69.0,64.2,57.0,97,92,80,29.95,29.67,14,3,30,0.29
2012-6-20,88.8,76.6,62.1,73.0,67.4,60.0,94,75,56,29.93,29.75,13,5,19,0.29
2012-6-21,79.0,69.8,59.9,67.0,62.7,56.0,90,78,67,29.84,29.65,15,6,23,0.04
2012-6-22,72.3,63.0,55.8,57.0,53.5,47.0,95,73,46,29.95,29.84,13,6,16,0.04
2012-6-23,76.0,63.7,49.1,58.0,50.9,45.0,90,65,36,30.04,29.95,8,3,14,0.00
2012-6-24,71.0,63.1,59.1,63.0,57.4,53.0,95,82,64,29.98,29.88,16,6,23,0.41
2012-6-25,69.3,62.3,56.7,55.0,49.8,46.0,83,65,48,30.10,29.98,21,10,26,0.00
2012-6-26,76.3,66.4,54.6,57.0,50.4,47.0,79,58,40,30.00,29.87,16,8,25,0.00
2012-6-27,77.7,66.5,55.9,59.0,52.5,44.0,81,62,34,29.94,29.75,11,3,17,0.00
2012-6-28,76.5,67.2,57.6,67.0,60.2,54.0,89,78,62,29.75,29.61,16,3,20,0.00
2012-6-29,79.0,71.5,65.1,62.0,58.2,53.0,85,64,43,29.70,29.63,15,8,19,0.00
2012-6-30,77.7,69.7,63.6,61.0,58.9,55.0,83,69,52,29.79,29.62,22,8,27,0.00
2012-7-1,79.6,68.6,56.3,60.0,56.9,54.0,92,68,43,29.93,29.80,14,5,16,0.00
2012-7-2,84.8,70.4,58.9,66.0,59.4,55.0,88,70,40,30.00,29.86,7,2,12,0.00
2012-7-3,79.4,74.4,68.9,69.0,64.3,58.0,85,71,56,29.86,29.67,18,7,24,0.00
2012-7-4,86.8,76.0,66.7,69.0,64.9,58.0,89,70,45,29.82,29.70,12,3,13,0.00
2012-7-5,72.0,68.5,64.9,63.0,60.4,58.0,83,76,61,29.85,29.74,10,4,19,0.00
2012-7-7,79.3,70.9,62.0,66.0,62.6,60.0,95,76,60,29.96,29.90,14,7,21,0.34
2012-7-8,75.8,68.4,64.8,63.0,57.4,54.0,85,69,51,30.07,29.96,11,5,14,0.00
2012-7-9,75.4,68.3,60.7,62.0,56.0,47.0,85,66,38,30.05,29.98,11,4,15,0.00
2012-7-10,76.7,65.2,51.8,60.0,54.6,49.0,94,71,38,30.14,30.04,9,4,15,0.00
2012-7-11,79.6,68.8,52.8,62.0,54.4,47.0,94,63,32,30.18,30.06,10,4,18,0.00
2012-7-12,84.7,72.8,60.9,63.0,57.0,53.0,88,61,34,30.10,30.03,12,4,16,0.00
2012-7-13,85.9,73.2,58.7,67.0,60.6,54.0,93,67,35,30.08,30.00,15,4,17,0.00
2012-7-14,81.6,73.3,68.8,69.0,66.2,61.0,90,79,57,30.01,29.93,11,4,17,0.01
2012-7-15,82.6,73.9,66.8,71.0,67.8,64.0,94,82,61,29.95,29.87,11,4,14,0.03
2012-7-16,82.8,74.2,65.7,72.0,68.2,63.0,94,82,64,29.92,29.57,12,4,23,0.00
2012-7-17,82.2,74.4,65.8,70.0,67.2,63.0,91,79,65,29.82,29.55,12,6,19,0.00
2012-7-18,78.0,70.9,64.0,66.0,58.4,52.0,90,66,42,29.99,29.83,12,5,15,0.00
2012-7-19,75.3,68.4,59.4,60.0,56.0,52.0,89,66,45,30.05,29.94,15,7,23,0.00
2012-7-20,76.5,66.6,53.1,61.0,55.3,52.0,94,70,45,30.12,30.01,8,3,11,0.00
2012-7-21,80.1,71.6,64.4,69.0,60.3,54.0,78,68,49,30.02,29.86,15,5,21,0.00
2012-7-22,82.1,70.5,60.0,68.0,62.2,50.0,93,77,33,29.99,29.89,8,3,11,0.00
2012-7-23,84.5,75.4,68.9,73.0,67.4,62.0,88,77,58,29.89,29.65,22,8,29,0.00
2012-7-24,77.2,71.0,65.9,66.0,56.9,51.0,87,62,42,29.95,29.76,23,10,25,0.00
2012-7-25,71.6,63.9,55.2,64.0,58.9,53.0,94,84,61,29.92,29.55,11,3,24,0.30
2012-7-26,71.4,65.8,62.7,64.0,61.9,59.0,95,87,72,29.73,29.52,13,6,16,0.30
2012-7-27,74.4,66.7,59.5,63.0,57.4,54.0,93,73,53,29.96,29.74,17,6,22,0.00
2012-7-28,79.0,66.7,52.9,61.0,55.1,50.0,96,70,39,30.09,29.97,8,3,12,0.00
2012-7-29,80.3,69.5,55.2,65.0,57.7,51.0,95,69,36,30.05,29.93,10,4,15,0.00
2012-7-30,82.6,73.1,65.1,67.0,63.9,60.0,93,74,54,29.93,29.72,17,5,20,1.22
2012-7-31,75.9,70.2,65.1,67.0,65.0,63.0,96,84,69,29.85,29.73,18,7,27,1.26
2012-8-1,78.7,68.9,58.8,66.0,62.3,57.0,96,81,50,29.89,29.74,10,4,15,0.00
2012-8-2,80.3,73.1,65.6,71.0,65.8,62.0,94,78,62,29.82,29.66,16,7,24,0.01
2012-8-3,73.1,66.2,61.8,64.0,60.4,57.0,93,82,69,30.00,29.83,15,7,16,0.01
2012-8-4,81.1,72.6,60.1,71.0,66.5,58.0,93,82,69,29.98,29.70,20,6,25,0.00
2012-8-5,75.5,68.0,58.6,70.0,59.6,49.0,94,76,57,30.03,29.65,32,9,36,0.20
2012-8-6,76.4,67.1,55.5,61.0,54.7,48.0,87,66,47,30.05,29.85,16,6,21,0.00
2012-8-7,78.1,69.8,63.9,67.0,62.1,57.0,92,77,57,29.90,29.80,18,6,23,0.01
2012-8-8,74.0,67.2,62.9,61.0,58.0,56.0,83,73,54,30.00,29.90,10,5,13,0.00
2012-8-9,70.9,66.3,62.7,62.0,56.6,53.0,86,72,57,30.02,29.92,16,8,21,0.04
2012-8-10,68.8,65.2,61.4,59.0,55.2,51.0,84,70,59,29.97,29.80,23,10,26,0.11
2012-8-11,65.3,62.3,59.4,61.0,58.2,56.0,91,86,80,29.86,29.79,19,8,22,0.04
2012-8-12,78.4,68.7,63.5,60.0,58.6,54.0,88,71,49,29.90,29.84,15,7,17,0.04
2012-8-13,72.5,65.6,58.1,65.0,59.8,55.0,94,82,68,29.93,29.88,7,3,13,0.00
2012-8-14,74.2,66.2,58.6,65.0,61.1,57.0,95,84,66,29.88,29.80,9,3,12,0.00
2012-8-15,76.8,66.7,59.3,62.0,57.5,49.0,95,74,40,29.89,29.82,11,3,14,0.00
2012-8-16,70.6,65.9,60.4,65.0,62.6,56.0,95,89,70,29.87,29.54,12,5,28,0.57
2012-8-17,63.0,58.0,51.5,58.0,51.1,44.0,93,79,58,29.92,29.64,25,10,28,0.59
2012-8-18,71.6,61.0,52.2,58.0,52.9,45.0,90,76,48,29.93,29.86,14,6,23,0.00
2012-8-19,64.8,59.0,50.2,56.0,48.1,40.0,95,70,45,29.94,29.88,16,6,20,0.00
2012-8-20,69.4,59.6,48.8,56.0,50.8,45.0,88,73,55,29.93,29.87,15,5,20,0.00
2012-8-21,71.7,61.8,51.9,59.0,54.7,50.0,96,79,48,30.01,29.91,10,3,13,0.00
2012-8-22,77.5,68.7,61.4,61.0,57.4,53.0,91,69,44,30.01,29.95,15,6,24,0.00
2012-8-23,81.5,69.0,61.0,63.0,58.6,55.0,88,71,45,30.05,29.98,10,4,16,0.00
2012-8-24,75.2,69.0,64.7,68.0,64.5,62.0,95,86,75,30.04,29.96,13,5,21,0.06
2012-8-25,83.9,75.4,70.3,68.0,63.5,62.0,78,67,54,30.02,29.96,11,5,19,0.06
2012-8-26,76.6,71.6,65.8,68.0,65.1,62.0,95,80,69,30.02,29.91,12,4,17,0.37
2012-8-27,76.5,69.5,63.2,67.0,63.2,58.0,95,81,55,29.96,29.89,19,7,24,0.38
2012-8-28,68.5,64.0,54.4,60.0,53.9,50.0,90,71,54,30.11,29.96,12,6,17,0.00
2012-8-29,73.0,60.9,49.6,59.0,54.2,48.0,95,80,56,30.09,29.94,8,3,11,0.00
2012-8-30,87.4,75.3,60.9,66.0,63.2,59.0,95,68,47,29.95,29.72,16,6,23,0.00
2012-8-31,78.4,72.7,64.5,67.0,60.5,51.0,86,67,40,30.03,29.73,22,10,27,0.00
2012-9-1,74.0,64.7,53.9,61.0,57.4,52.0,95,78,51,30.16,30.04,7,2,8,0.00
2012-9-2,73.1,63.4,53.2,63.0,56.1,52.0,96,79,53,30.12,30.02,11,3,17,0.00
2012-9-3,79.3,65.0,50.4,67.0,58.8,49.0,97,82,55,30.01,29.83,10,3,18,0.01
2012-9-4,76.6,68.3,60.2,68.0,64.1,59.0,96,87,73,29.89,29.79,6,2,9,0.03
2012-9-5,78.6,68.7,60.9,70.0,64.7,59.0,97,87,68,29.82,29.64,11,4,19,0.02
2012-9-6,75.1,65.3,56.4,61.0,56.5,51.0,95,75,44,29.84,29.73,13,5,21,0.02
2012-9-7,64.8,60.0,55.7,60.0,57.2,53.0,95,90,81,29.85,29.72,8,2,12,0.39
2012-9-8,62.4,57.8,50.8,56.0,50.5,44.0,94,78,58,29.79,29.62,21,10,28,0.39
2012-9-9,64.1,56.2,43.3,51.0,45.2,37.0,94,69,43,30.07,29.79,17,7,20,0.00
2012-9-10,66.8,57.6,43.4,55.0,49.2,42.0,95,76,43,30.18,30.05,9,3,14,0.00
2012-9-11,75.6,65.9,53.4,63.0,57.6,52.0,96,75,53,30.05,29.95,13,5,21,0.00
2012-9-12,79.1,69.9,58.8,64.0,58.1,48.0,88,67,52,30.12,29.96,21,6,27,0.00
2012-9-13,62.4,56.6,51.3,55.0,51.1,49.0,94,82,67,30.25,30.12,17,5,24,0.04
2012-9-14,59.9,52.9,42.5,56.0,49.9,42.0,97,89,78,30.26,30.19,11,3,17,0.05
2012-9-15,59.3,51.6,42.8,52.0,42.3,38.0,91,72,48,30.34,30.14,14,6,19,0.05
2012-9-16,75.8,61.4,41.2,58.0,50.5,39.0,96,71,46,30.14,29.86,18,5,25,0.00
2012-9-17,69.0,62.1,54.4,59.0,54.7,51.0,95,78,56,29.87,29.65,16,4,21,0.31
2012-9-18,53.4,49.6,46.4,52.0,43.4,38.0,93,80,61,29.88,29.65,22,13,29,0.38
2012-9-19,58.4,47.8,35.2,51.0,39.9,32.0,89,75,53,30.03,29.81,17,5,23,0.11
2012-9-20,59.2,55.1,51.8,52.0,49.6,48.0,91,82,67,29.80,29.71,17,6,30,0.45
2012-9-21,60.2,51.2,46.6,51.0,47.1,44.0,94,86,59,29.83,29.74,21,4,34,0.49
2012-9-22,53.4,47.3,42.3,47.0,43.0,39.0,96,85,67,29.95,29.67,23,8,31,0.50
2012-9-23,51.8,45.2,41.0,43.0,40.2,39.0,92,83,63,30.13,29.96,14,6,23,0.01
2012-9-24,59.4,50.1,40.0,49.0,43.0,38.0,94,78,51,30.11,29.67,16,5,33,0.16
2012-9-25,57.2,50.1,38.8,47.0,43.9,37.0,96,80,52,29.92,29.75,10,3,11,0.16
2012-9-26,56.7,50.8,42.0,46.0,43.1,39.0,93,76,56,30.20,29.89,16,6,18,0.00
2012-9-27,56.3,47.8,36.2,49.0,42.6,35.0,95,83,65,30.32,30.20,15,4,19,0.00
2012-9-28,61.0,48.8,36.5,51.0,43.5,35.0,97,83,54,30.20,30.06,10,4,13,0.00
2012-9-29,61.3,53.9,44.7,51.0,47.6,43.0,96,80,62,30.07,30.00,16,5,22,0.00
2012-9-30,61.3,52.0,47.0,47.0,40.5,-99.9,86,72,51,30.05,29.92,15,-8,21,0.00
2012-10-1,61.6,52.1,41.5,52.0,46.1,40.0,96,81,51,29.92,29.84,10,3,14,0.00
2012-10-2,62.3,52.4,43.4,56.0,48.8,42.0,96,88,71,29.98,29.84,7,2,9,0.00
2012-10-3,61.1,53.1,42.2,56.0,50.8,41.0,97,92,81,30.04,29.98,8,2,10,0.02
2012-10-4,66.5,59.7,56.0,58.0,56.5,54.0,97,89,70,29.98,29.79,17,4,18,0.01
2012-10-5,61.4,50.4,45.1,53.0,40.5,33.0,76,69,60,29.91,29.79,16,8,27,0.01
2012-10-6,46.2,43.3,40.4,37.0,33.0,29.0,79,68,57,30.09,29.77,20,10,29,0.00
2012-10-7,47.3,39.6,29.1,37.0,31.0,26.0,92,72,53,30.12,30.04,14,4,16,0.04
2012-10-8,53.9,47.7,37.4,38.0,34.5,31.0,90,62,42,30.08,29.98,19,6,27,0.04
2012-10-9,55.9,50.2,46.2,48.0,41.2,33.0,91,72,51,29.98,29.65,14,7,26,0.03
2012-10-10,45.5,41.2,35.8,43.0,36.3,29.0,92,83,65,30.02,29.67,18,8,27,0.02
2012-10-11,44.3,39.1,35.9,41.0,34.2,28.0,93,83,71,30.13,29.84,16,7,25,0.04
2012-10-12,43.8,38.3,32.3,33.0,30.1,27.0,91,73,57,30.45,30.18,15,5,20,0.04
2012-10-13,47.9,42.6,30.0,46.0,38.4,28.0,95,86,69,30.36,29.79,15,5,27,0.73
2012-10-14,50.3,48.4,47.2,49.0,47.3,46.0,97,96,95,29.79,29.28,23,9,30,0.51
2012-10-15,47.3,42.8,39.2,46.0,38.5,33.0,95,85,72,29.93,29.26,29,17,33,0.97
2012-10-16,48.9,40.9,28.8,46.0,36.1,27.0,95,83,66,29.96,29.72,12,4,16,0.03
2012-10-17,57.6,53.6,49.0,53.0,49.8,46.0,92,87,81,29.73,29.50,18,8,26,0.04
2012-10-18,58.1,53.3,43.0,53.0,49.4,42.0,95,87,73,29.68,29.40,17,8,32,0.03
2012-10-19,55.5,51.6,43.6,50.0,47.1,42.0,96,85,73,29.69,29.61,21,8,22,0.07
2012-10-20,55.2,49.6,45.7,47.0,44.8,42.0,94,84,65,29.78,29.61,18,6,26,0.09
2012-10-21,58.0,50.7,45.2,49.0,45.1,42.0,91,81,59,30.03,29.79,15,6,22,0.00
2012-10-22,60.4,49.6,40.2,51.0,45.8,39.0,97,88,63,30.07,30.02,8,2,12,0.00
2012-10-23,53.4,51.5,48.9,51.0,46.7,43.0,95,84,75,30.09,30.02,23,11,27,0.00
2012-10-24,55.0,52.0,49.3,54.0,49.3,43.0,97,90,78,30.08,29.92,15,8,21,0.12
2012-10-25,64.0,59.6,55.1,58.0,55.5,54.0,96,87,77,29.92,29.60,19,10,30,0.12
2012-10-26,61.9,44.9,38.8,56.0,37.9,30.0,94,77,54,30.27,29.62,23,8,27,0.24
2012-10-27,44.1,40.4,30.0,36.0,31.8,28.0,94,72,55,30.32,30.26,15,6,19,0.00
2012-10-28,45.0,42.1,39.9,34.0,28.9,24.0,78,61,46,30.37,30.27,19,11,24,0.00
2012-10-29,43.5,40.6,38.9,32.0,29.4,25.0,73,65,55,30.29,30.03,26,16,35,0.00
2012-10-30,40.8,39.3,37.8,36.0,34.6,30.0,90,83,70,30.03,29.65,30,19,34,0.14
2012-10-31,44.4,40.2,38.4,38.0,35.1,33.0,86,82,77,29.65,29.57,23,16,26,0.14
2012-11-1,41.3,38.3,34.2,34.0,31.8,28.0,83,77,71,29.78,29.60,26,18,30,0.00
2012-11-2,38.4,35.4,33.5,31.0,28.6,26.0,84,76,70,30.12,29.79,29,19,31,0.00
2012-11-3,37.2,33.5,31.0,29.0,26.2,24.0,80,75,63,30.25,30.12,21,10,24,0.00
2012-11-4,33.4,30.5,27.7,27.0,25.0,22.0,84,80,73,30.30,30.23,15,6,23,0.00
2012-11-5,32.8,30.9,27.9,23.0,21.6,20.0,80,69,63,30.33,30.21,16,6,19,0.00
2012-11-6,38.5,35.5,31.2,32.0,26.5,23.0,83,70,64,30.21,30.06,11,3,17,0.00
2012-11-7,42.2,38.3,32.9,33.0,30.2,26.0,82,73,60,30.21,30.09,11,4,22,0.00
2012-11-8,44.6,40.1,32.5,38.0,32.9,26.0,82,75,65,30.21,30.06,8,3,16,0.00
2012-11-9,46.9,44.6,42.0,42.0,39.8,37.0,86,83,78,30.21,30.06,13,4,17,0.00
2012-11-10,47.1,38.8,35.6,45.0,35.3,30.0,95,87,79,30.28,29.96,19,12,28,0.77
2012-11-11,58.0,52.8,47.2,51.0,48.0,45.0,94,84,74,29.97,29.77,24,9,32,0.77
2012-11-12,55.5,40.9,26.1,50.0,36.4,20.0,93,84,72,30.09,29.73,19,8,25,0.31
2012-11-13,38.9,32.4,26.3,31.0,25.2,17.0,89,75,68,30.52,30.11,15,6,19,0.02
2012-11-14,39.6,35.0,26.4,32.0,27.4,24.0,90,74,60,30.58,30.45,16,4,23,0.00
2012-11-15,43.1,39.5,35.2,36.0,32.3,28.0,86,75,68,30.45,30.30,16,4,21,0.00
2012-11-16,41.7,35.3,26.4,38.0,30.1,24.0,91,82,66,30.54,30.32,13,5,17,0.00
2012-11-17,42.9,35.3,25.4,39.0,33.1,24.0,96,91,84,30.61,30.55,9,2,14,0.00
2012-11-18,47.4,42.2,32.3,42.0,39.2,31.0,96,89,74,30.57,30.44,17,5,19,0.00
2012-11-19,47.6,44.1,40.1,43.0,41.2,38.0,95,89,82,30.44,30.17,13,5,23,0.00
2012-11-20,50.2,43.2,32.7,46.0,41.1,32.0,96,92,84,30.17,30.10,6,2,11,0.00
2012-11-21,48.8,44.7,34.5,45.0,42.2,34.0,97,91,80,30.20,30.00,9,3,15,0.00
2012-11-22,57.7,50.0,44.4,45.0,43.4,41.0,91,78,57,30.00,29.58,15,6,22,0.00
2012-11-23,55.2,38.5,29.1,48.0,33.5,23.0,93,82,72,29.86,29.41,42,15,44,0.09
2012-11-24,29.8,26.4,24.5,24.0,19.5,17.0,81,75,68,30.07,29.87,31,14,35,0.00
2012-11-25,31.5,27.7,24.5,30.0,24.6,20.0,94,88,81,29.98,29.75,13,5,19,0.00
2012-11-26,30.3,28.2,26.6,25.0,22.9,19.0,90,81,67,30.29,29.91,17,7,20,0.01
2012-11-27,32.9,28.5,20.6,27.0,22.1,16.0,87,77,68,30.30,30.08,12,5,22,0.00
2012-11-28,33.1,27.9,23.8,29.0,19.7,14.0,90,72,59,30.24,30.06,25,9,32,0.00
2012-11-29,33.6,26.3,20.5,28.0,19.7,13.0,84,76,69,30.43,30.12,18,9,22,0.00
2012-11-30,24.5,20.7,18.5,20.0,15.3,11.0,85,80,71,30.50,30.43,21,12,26,0.00
2012-12-1,42.4,33.5,24.5,41.0,31.4,20.0,95,92,84,30.43,29.90,20,8,24,0.37
2012-12-2,46.0,41.7,39.1,45.0,40.4,38.0,97,95,93,30.11,29.79,11,5,16,0.42
2012-12-3,50.3,41.7,32.1,50.0,40.6,31.0,97,95,92,30.14,29.68,18,7,29,0.00
2012-12-4,56.1,42.1,27.8,55.0,37.4,22.0,97,83,69,30.09,29.66,28,10,39,0.08
2012-12-5,29.7,24.7,16.9,24.0,17.7,15.0,91,75,64,30.45,30.11,26,9,30,0.00
2012-12-6,38.3,33.8,21.6,33.0,27.9,19.0,91,79,76,30.38,29.87,17,6,28,0.00
2012-12-7,39.9,36.5,31.7,37.0,30.7,26.0,90,79,71,30.04,29.86,17,7,23,0.00
2012-12-8,31.9,30.7,29.8,28.0,25.6,22.0,89,81,69,30.24,29.99,15,7,18,0.00
2012-12-9,29.9,25.4,23.0,24.0,21.0,17.0,92,83,73,30.35,29.86,26,12,32,0.00
2012-12-10,24.4,21.6,18.5,22.0,17.3,14.0,92,83,74,29.95,29.69,20,12,24,0.00
2012-12-11,31.8,24.1,16.6,26.0,19.7,14.0,90,83,74,30.05,29.95,19,5,27,0.00
2012-12-12,37.1,27.5,21.0,32.0,22.7,17.0,93,82,71,30.31,29.99,13,5,23,0.00
2012-12-13,43.2,38.6,33.9,34.0,30.7,28.0,87,74,64,30.24,30.03,16,6,26,0.03
2012-12-14,35.1,30.5,24.9,31.0,25.4,21.0,87,81,75,30.35,30.06,21,8,25,0.00
2012-12-15,35.6,29.0,23.9,34.0,26.8,22.0,95,91,85,30.32,29.81,15,9,22,0.17
2012-12-16,37.8,35.4,32.8,37.0,34.4,32.0,97,96,94,29.81,29.57,15,6,22,0.02
2012-12-17,39.5,36.2,31.3,38.0,34.4,30.0,97,93,83,29.70,29.59,14,4,17,0.08
2012-12-18,36.1,33.9,30.1,34.0,31.8,29.0,95,92,87,29.80,29.68,7,3,9,0.00
2012-12-19,35.0,30.1,25.6,32.0,28.4,24.0,96,93,85,30.17,29.80,10,3,12,0.01
2012-12-20,32.4,30.5,26.9,31.0,29.1,25.0,97,94,88,30.17,29.39,32,13,43,0.00
2012-12-21,29.1,26.6,24.4,27.0,23.9,20.0,96,89,81,29.87,29.37,41,23,46,0.00
2012-12-22,27.9,24.8,20.7,24.0,20.2,16.0,91,82,75,30.01,29.87,32,14,36,0.00
2012-12-23,28.2,23.7,20.3,25.0,19.0,13.0,92,82,72,30.00,29.82,32,10,39,0.00
2012-12-24,27.5,26.2,24.9,24.0,21.1,19.0,92,81,72,30.10,30.00,11,5,17,0.00
2012-12-25,27.1,24.7,22.0,23.0,18.7,15.0,91,78,72,30.46,30.11,18,8,22,0.00
2012-12-26,25.0,21.0,16.8,21.0,16.2,13.0,87,82,76,30.45,30.19,21,10,23,0.00
2012-12-27,23.8,19.4,10.5,16.0,12.9,7.0,87,76,63,30.22,30.16,14,9,19,0.00
2012-12-28,20.9,17.9,9.2,18.0,15.4,6.0,93,89,85,30.22,30.09,10,4,13,0.00
2012-12-29,23.9,18.8,16.2,18.0,15.3,13.0,92,86,72,30.08,29.94,12,6,15,0.00
2012-12-30,27.8,21.1,8.8,23.0,17.2,6.0,91,85,79,30.22,30.05,12,3,16,0.00
2012-12-31,33.8,26.3,16.6,30.0,21.6,10.0,90,82,73,30.07,29.82,27,12,35,0.00
2013-1-1,23.4,16.5,6.9,14.0,9.2,3.0,83,73,60,30.16,29.99,24,8,29,0.00